Location: Grand Moustoir
(47.8355°N, 3.3120°W)
Time: 20:21:55
(UTC+00:00)

NOSS 2-2 (D) - Pass Details

Date: 20 January 2020
Orbit: 485 x 1724 km, 63.3° (Epoch: 03 February)

Event Time Altitude Azimuth Distance (km) Brightness Sun altitude
Exits shadow 06:58:54 11° 268° (W) 1,682 5.2 -9.3°
Maximum altitude 07:02:03 27° 327° (NNW) 1,074 4.4 -8.8°
Drops below altitude 10° 07:05:50 10° 27° (NNE) 2,019 6.3 -8.2°
Sets 07:08:42 0° 39° (NE) 3,112 7.4 -7.7°
